STARLINK-3635, 51981

Orbit data source: Space-Track

STARLINK-3635, 51981 is a payload satellite owned by SpaceX/Seattle (US) in LEO that was launched on Wed, 09 Mar 2022 UTC via an FALCON 9 launch vehicle from the Air Force Eastern Test Range (AFETR). Payload-class satellites include a variety of spacecraft equipped with specific instruments for various scientific and technological missions. These include communications satellites like Starlink; space stations such as the ISS; scientific satellites like the Hubble; Earth observation satellites from companies like Planet Labs, Umbra, and HawkEye 360; GPS; miniature CubeSats for education and research; and military/defense satellites.

Loading next visibility...
Identifier
51981, 2022-025AB
Orbit
LEO
Country
Flag of USUS
Related business
Manufacturer
SpaceX/Seattle
Mission
Operational Commercial Communications
Bus & Motor
STARLINK, Unknown motor
Mass
297 kg wet, ~275 kg dry
Launch date (UTC)
2022-03-09 (4 years ago)
Launch vehicle
FALCON 9
Launch site
Air Force Eastern Test Range (AFETR)
Object type
Payload
Rocket body
Debris
Shape & HBR
Box + 1 Pan, 10.1 m
Radar Cross Section
13.562 m², Large (>1 m²)

Expand to show TLE details & history
Last TLE update: 23 hours ago

TLE from 23 hours ago
0 STARLINK-3635
1 51981U 22025AB  25346.64212679 -.00001058  00000-0 -48374-4 0  9998
2 51981  53.2198  69.8929 0001321  86.1428 273.9715 15.08839079207916
Epoch: 2025-12-12T15:24Z
TLE epoch observation values (Epoch: 2025-12-12T15:24:39.754Z)
Latitude
-0.00005°
Longitude
117.1464°
Altitude
540.581 km
Speed
7.593 km/s
True Right ascension
04h 39m 34s
True Declination
0° 00' 00"
Sunlit
Object was in full shadow at epoch
Visualization orbit readout
Latitude
Unknown
Longitude
Unknown
Altitude
Unknown
Speed
Unknown
Apparent Right ascension
Unknown
Apparent Declination
Unknown
Sunlit
N/A
Visualization observer readout
Local Sidereal Time
13:10:58
Azimuth
Unknown
Elevation
Unknown
Doppler factor
Unknown
Orbital elements
Apogee altitude
540.905 km
Perigee altitude
539.077 km
Semi-major axis
6,918.128 km
Eccentricity
0.00013
Inclination
53.2198°
RAAN
69.8929°
Arg. of periapsis
86.1428°
True anomaly
273.9564°
Mean anomaly
273.9715°
Eccentric anomaly
273.96395°
Mean motion
3.7719 °/min
Orbital period
95.44 mins
BSTAR
-0.000048374
Loading maneuver chart data...
Computing Atmospheric mass density...
Loading historical data...
Loading historical data...
Loading historical data...
Loading historical data...
Loading historical data...
Loading historical data...
Loading historical data...

Documentation

Showing up to 5 results
|